Weather in Hust

Ukraine / Zakarpattia District     48°10′26″N   23°17′51″E
temp.,
°C
wind,
m/s
gust,
m/s
humid.,
%
clouds,
%
prec.,
mm/h
press.,
hPa
HPBL,
m
12 august, fri
fri1200:00+16ene336410 0.0 101956
03:00+13ene33785 0.0 101938
06:00+12ene22814 0.0 101932
09:00+19e22530 0.0 1019279
12:00+27s12324 0.0 10181335
15:00+29ssw2428100 0.0 10152378
18:00+27ne4440100 0.0 10151192
21:00+21ne2364100 0.0 101535
13 august, sat
sat1300:00+18ne3374100 0.0 101544
03:00+16ne2285100 0.0 101538
06:00+15ene2285100 0.0 101433
09:00+21ene12605 0.0 1013370
12:00+28sse11415 0.0 10121438
15:00+29wnw113696 0.1 10092287
18:00+25ne235069 0.1 1009299
21:00+21ne226899 0.1 100927
14 august, sun
sun1400:00+18ne337998 0.0 100944
03:00+16ne2288100 0.0 100930
06:00+16ne229030 0.0 100926
09:00+22ne116568 0.0 1009384
12:00+27w1148100 0.0 10081233
15:00+30wnw1239100 0.0 10072007
18:00+30w2237100 0.0 10062036
21:00+23ene226479 0.4 100626
15 august, mon
mon1500:00+19e2285100 0.9 100720
03:00+17ese1290100 2.0 100714
06:00+16ene119091 0.0 100711
09:00+19se118278 0.6 1007166
12:00+25sw225667 0.3 1007852
15:00+28wsw334360 0.4 10061651
18:00+28nw124218 0.2 10051497
21:00+20ese227962 1.1 100714
16 august, tue
tue1600:00+17ene229570 3.0 100836
03:00+17ene229452 3.2 100823
06:00+16ene229425 1.8 100819
09:00+20ese228125 2.8 1009198
12:00+26s2350100 0.0 1009992
15:00+29sw4437100 0.0 10081546
18:00+30w243458 0.0 10071646
21:00+20sw338084 0.9 101031